Carbondale, IL

7:12 PM CST on December 05, 2019 (GMT -0600)
Southern Illinois

Weather History for KMDH - October, 2019

Change the Weather History Date:

Wednesday, October 9, 2019

  Actual Average Record
Temperature  
Mean Temperature 60 °F -  
Max Temperature 80 °F 71 °F 92 °F (1928)
Min Temperature 39 °F 45 °F 24 °F (1917)
Degree Days  
Heating Degree Days 6    
Growing Degree Days 10 (Base 50)    
Moisture  
Dew Point 45 °F    
Average Humidity 84    
Maximum Humidity 100    
Minimum Humidity 35    
Precipitation  
Precipitation 0.00 in - - ()
Sea Level Pressure  
Sea Level Pressure 30.09 in    
Wind  
Wind Speed 1 mph (ESE)    
Max Wind Speed 12 mph    
Max Gust Speed -    
Visibility 4 miles    
Events Fog    
Averages and records for this station are not official NWS values.
T = Trace of Precipitation, MM = Missing Value Source: NWS Daily Summary

Daily Weather History Graph

Daily Weather History Graph

Search for Another Location

Airport or City:

Astronomy

Oct. 09, 2019 Rise Set
Actual Time 6:59 AM CDT 6:28 PM CDT
Civil Twilight 6:33 AM CDT 6:54 PM CDT
Nautical Twilight 6:02 AM CDT 7:24 PM CDT
Astronomical Twilight 5:32 AM CDT 7:55 PM CDT
Moon 4:54 PM CDT (10/9) 2:52 AM CDT (10/9)
Length of Visible Light 12h 21m
Length of Day
11h 28m
Waxing Gibbous, 85% of the Moon is Illuminated
Oct 9
Waxing Gibbous
Oct 13
Full
Oct 21
Last Quarter
Oct 27
New
Nov 4
First Quarter

Hourly Weather History & Observations

Time (CDT) Temp. Dew Point Humidity Pressure Visibility Wind Dir Wind Speed Gust Speed Precip Events Conditions
12:13 AM 46.0 °F 44.1 °F 93% 30.10 in 1.5 mi Calm Calm - N/A   Clear
12:32 AM 46.0 °F 44.1 °F 93% 30.10 in 3.0 mi Calm Calm - N/A   Clear
12:38 AM 45.0 °F 44.1 °F 97% 30.10 in 1.5 mi Calm Calm - N/A   Clear
12:52 AM 45.0 °F 43.0 °F 93% 30.10 in 1.2 mi Calm Calm - N/A   Clear
1:04 AM 45.0 °F 43.0 °F 93% 30.10 in 3.0 mi Calm Calm - N/A   Clear
1:17 AM 45.0 °F 43.0 °F 93% 30.10 in 0.5 mi Calm Calm - N/A Fog Fog
1:27 AM 44.1 °F 42.1 °F 93% 30.10 in 0.2 mi Calm Calm - N/A Fog Fog
1:37 AM 45.0 °F 44.1 °F 97% 30.11 in 0.5 mi Calm Calm - N/A Fog Fog
1:52 AM 46.0 °F 44.1 °F 93% 30.11 in 1.0 mi Calm Calm - N/A   Mist
2:06 AM 43.0 °F 42.1 °F 97% 30.10 in 0.5 mi Calm Calm - N/A Fog Fog
2:15 AM 42.1 °F 41.0 °F 96% 30.10 in 0.5 mi Calm Calm - N/A Fog Fog
2:21 AM 43.0 °F 41.0 °F 93% 30.10 in 0.2 mi Calm Calm - N/A Fog Fog
2:28 AM 43.0 °F 41.0 °F 93% 30.10 in 0.5 mi Calm Calm - N/A Fog Fog
2:40 AM 43.0 °F 42.1 °F 97% 30.10 in 0.2 mi Calm Calm - N/A Fog Fog
2:52 AM 42.1 °F 41.0 °F 96% 30.09 in 0.2 mi Calm Calm - N/A Fog Fog
3:01 AM 42.1 °F 41.0 °F 96% 30.09 in 0.5 mi Calm Calm - N/A Fog Fog
3:10 AM 43.0 °F 41.0 °F 93% 30.09 in 0.2 mi Calm Calm - N/A Fog Fog
3:29 AM 43.0 °F 41.0 °F 93% 30.10 in 0.2 mi Calm Calm - N/A Fog Fog
3:38 AM 43.0 °F 41.0 °F 93% 30.10 in 0.5 mi Calm Calm - N/A Fog Fog
3:52 AM 42.1 °F 41.0 °F 96% 30.09 in 0.5 mi Calm Calm - N/A Fog Fog
4:47 AM 42.8 °F 39.2 °F 87% 30.10 in 2.0 mi Calm Calm - N/A   Mostly Cloudy
4:48 AM 42.1 °F 39.9 °F 92% 30.10 in 2.5 mi Calm Calm - N/A   Mostly Cloudy
5:00 AM 42.1 °F 39.9 °F 92% 30.10 in 1.0 mi Calm Calm - N/A   Mist
5:05 AM 42.1 °F 39.9 °F 92% 30.10 in 0.8 mi Calm Calm - N/A   Mist
5:52 AM 39.9 °F 39.9 °F 100% 30.11 in 0.2 mi Calm Calm - N/A Fog Fog
6:17 AM 41.0 °F 39.0 °F 93% 30.11 in 0.5 mi Calm Calm - N/A Fog Fog
6:52 AM 39.9 °F 39.0 °F 97% 30.12 in 0.5 mi Calm Calm - N/A Fog Fog
7:17 AM 41.0 °F 39.9 °F 96% 30.12 in 0.2 mi Calm Calm - N/A Fog Fog
7:24 AM 41.0 °F 39.9 °F 96% 30.12 in 0.2 mi Calm Calm - N/A Fog Fog
7:28 AM 42.1 °F 39.9 °F 92% 30.12 in 0.8 mi Calm Calm - N/A   Mist
7:33 AM 42.1 °F 41.0 °F 96% 30.12 in 1.5 mi Calm Calm - N/A   Scattered Clouds
7:45 AM 44.1 °F 43.0 °F 96% 30.12 in 3.0 mi Calm Calm - N/A   Scattered Clouds
7:52 AM 45.0 °F 44.1 °F 97% 30.12 in 2.5 mi Calm Calm - N/A   Partly Cloudy
8:22 AM 48.9 °F 46.9 °F 93% 30.12 in 5.0 mi Calm Calm - N/A   Clear
8:52 AM 53.1 °F 48.0 °F 83% 30.13 in 7.0 mi East 3.5 mph - N/A   Clear
9:52 AM 62.1 °F 52.0 °F 70% 30.13 in 10.0 mi Variable 3.5 mph - N/A   Clear
10:52 AM 69.1 °F 55.0 °F 61% 30.14 in 10.0 mi East 3.5 mph - N/A   Clear
11:52 AM 73.9 °F 53.1 °F 48% 30.12 in 10.0 mi East 9.2 mph - N/A   Clear
12:52 PM 75.9 °F 54.0 °F 46% 30.09 in 10.0 mi East 6.9 mph - N/A   Clear
1:52 PM 77.0 °F 53.1 °F 43% 30.04 in 10.0 mi ESE 8.1 mph - N/A   Clear
2:52 PM 78.1 °F 50.0 °F 37% 30.02 in 10.0 mi ESE 11.5 mph - N/A   Clear
3:52 PM 80.1 °F 51.1 °F 36% 30.01 in 10.0 mi ESE 6.9 mph - N/A   Clear
4:52 PM 79.0 °F 48.9 °F 35% 30.00 in 10.0 mi SE 8.1 mph - N/A   Clear
5:52 PM 71.1 °F 51.1 °F 49% 30.01 in 10.0 mi ESE 3.5 mph - N/A   Clear
6:52 PM 64.0 °F 52.0 °F 65% 30.01 in 10.0 mi Calm Calm - N/A   Clear
7:52 PM 60.1 °F 54.0 °F 80% 30.03 in 10.0 mi Calm Calm - N/A   Clear
8:52 PM 57.9 °F 53.1 °F 84% 30.01 in 10.0 mi SE 5.8 mph - N/A   Clear
9:52 PM 59.0 °F 53.1 °F 81% 30.02 in 10.0 mi SSE 3.5 mph - N/A   Clear
10:52 PM 61.0 °F 53.1 °F 75% 30.02 in 10.0 mi SE 6.9 mph - N/A   Clear
11:52 PM 61.0 °F 54.0 °F 78% 30.01 in 10.0 mi ESE 8.1 mph - N/A   Clear